Regional Weather Roundup
Issued by NWS

Home | Current Version | Previous Version | Graphics & Text | Print | Product List | Glossary On
Versions: 1 2 3 4 5 6 7 8 9 10 11 12 13 14 15 16 17 18 19 20 21 22 23 24 25 26 27 28 29 30 31 32 33 34 35 36 37 38 39 40 41 42 43 44 45 46 47 48 49 50
000
ASUS45 KCYS 080310
RWRWY

WYOMING REGIONAL WEATHER ROUNDUP
NATIONAL WEATHER SERVICE CHEYENNE WY
800 PM MST SUN FEB 07 2016

NOTE:  "FAIR" INDICATES FEW OR NO CLOUDS BELOW 12,000 FEET
WITH NO SIGNIFICANT WEATHER AND/OR OBSTRUCTIONS TO VISIBILITY.

WYZ001-080400-
YELLOWSTONE NATIONAL PARK

CITY           SKY/WX    TMP DP  RH WIND       PRES   REMARKS
LK YELLOWSTONE   N/A     22  13  68 CALM      30.52S
W YELLOWSTONE  NOT AVBL

$$
WYZ002>013-054>058-071-098>099-080400-
NORTHERN WYOMING

CITY           SKY/WX    TMP DP  RH WIND       PRES   REMARKS
JACKSON        CLEAR     25  12  58 N9        30.54R WCI  15
CODY           CLOUDY    30  12  47 SE3       30.41R
GREYBULL       CLOUDY    31  17  56 S5        30.44R WCI  26
WORLAND        FAIR      24  16  71 SW8       30.44R WCI  15
SHERIDAN       PTCLDY    30  12  47 NW7       30.40S WCI  23
BUFFALO        CLOUDY    26  13  57 NW7       30.40R WCI  18
GILLETTE       FAIR      21  11  65 W14       30.38R WCI   8
HULETT         FAIR      30  12  47 NW13G18   30.36R WCI  20
NEWCASTLE      FAIR      27  10  50 NW17      30.35R WCI  14

$$
WYZ014>020-022>026-101>103-080400-
CENTRAL WYOMING

CITY           SKY/WX    TMP DP  RH WIND       PRES   REMARKS
BIG PINEY      FAIR      29  15  56 N21       30.47R WCI  16
PINEDALE       FAIR      27  12  54 W17       30.46R WCI  14
DUBOIS         FAIR      30   9  40 W24G30    30.44S WCI  16
LANDER         FAIR      21  11  65 CALM      30.41F
RIVERTON       FAIR      24  11  57 CALM      30.43S
CASPER         FAIR      17   8  67 SW5       30.41S WCI  10
DOUGLAS        MOCLDY    20  12  71 NW10        N/A  WCI   9

$$
WYZ021-027>030-104>119-080400-
SOUTHERN WYOMING

CITY           SKY/WX    TMP DP  RH WIND       PRES   REMARKS
EVANSTON       FAIR      27  15  61 SW6       30.56S WCI  20
FORT BRIDGER   CLEAR     28  18  64 W18       30.57R WCI  16
ROCK SPRINGS   FAIR      28  18  66 W23       30.48R WCI  14
DIXON          FAIR      11   6  82 E5        30.53R WCI   2
RAWLINS        FAIR      25  18  74 W18G28    30.40R WCI  11
SARATOGA       FAIR      27  19  74 W22       30.42R WCI  12
LARAMIE          N/A     16  10  77 NE13      30.32R WCI   2
CHEYENNE       FAIR      20  13  74 N15       30.32R WCI   6
TORRINGTON     FAIR      29  12  49 NW16      30.36S WCI  17
PINE BLUFFS    CLOUDY    27  14  59 N14       30.34S WCI  15

$$



USA.gov is the U.S. government's official web portal to all federal, state and local government web resources and services.